Regional Weather Roundup
Issued by NWS Newport/Morehead, NC

Current Version | Previous Version | Graphics & Text | Print | Product List | Glossary Off
Versions: 1 2 3 4 5 6 7 8 9 10 11 12 13 14 15 16 17 18 19 20 21 22 23 24 25 26 27 28 29 30 31 32 33 34 35 36 37 38 39 40 41 42 43 44 45 46 47 48 49 50

000
ASUS42 KMHX 211422
RWRMHX
WEATHER ROUNDUP FOR EASTERN NORTH CAROLINA
NATIONAL WEATHER SERVICE NEWPORT/MOREHEAD CITY NC
900 AM EST SUN DEC 21 2014

NOTE: "FAIR" INDICATES FEW OR NO CLOUDS BELOW 12,000 FEET
WITH NO SIGNIFICANT WEATHER AND/OR OBSTRUCTIONS TO VISIBILITY

NCZ015>017-031-032-045>047-102-103-211500-
NORTH COAST

CITY           SKY/WX    TMP DP  RH WIND       PRES   REMARKS
EDENTON          N/A     39  34  81 NE8       30.34R
ELIZABETH CITY PTSUNNY   42  32  67 N9        30.33R
KITTY HAWK     SUNNY     43  34  69 NE5       30.30R
MANTEO         SUNNY     44  34  69 NE10      30.32R

$$

NCZ045>047-081-094-103-104-211500-
CENTRAL COAST

CITY           SKY/WX    TMP DP  RH WIND       PRES   REMARKS
FRISCO         MOSUNNY   44  39  82 NE9G18    30.28S
SWANQUARTER      N/A     41 N/A N/A N12       30.27S

$$

NCZ095-097-098-100-101-211500-
SOUTHERN COAST

CITY           SKY/WX    TMP DP  RH WIND       PRES   REMARKS
BEAUFORT       CLOUDY    42  38  85 N14       30.28S
CEDAR ISLAND     N/A     43 N/A N/A N15G21    30.33S
JACKSONVILLE   CLOUDY    39  34  82 NE13      30.29F
PINEY ISLAND   CLOUDY    45  36  70 NE9G21    30.30R
WILMINGTON     CLOUDY    39  34  82 N14       30.28S


$$

NCZ011>013-027>030-043-044-078>080-089-090>093-098-211500-
COASTAL PLAIN

CITY           SKY/WX    TMP DP  RH WIND       PRES   REMARKS
AHOSKIE        CLOUDY    35  31  85 N3        30.34R
CLINTON        CLOUDY    38  34  87 NE6       30.32R
ELIZABETHTOWN  CLOUDY    40  36  85 CALM      30.30R
GOLDSBORO      PTSUNNY   37  37 100 NE8       30.31R
GREENVILLE     SUNNY     34  32  93 CALM      30.34R
HAVELOCK       CLOUDY    40  34  79 N13       30.31R
KENANSVILLE    CLOUDY    36  34  92 NE5       30.33S
KINSTON        MOSUNNY   36  34  93 NE5       30.33S
NEW BERN       CLOUDY    39  34  82 NE8       30.32R
RICHLANDS      CLOUDY    37  32  81 N9        30.33R
ROCKY MOUNT    CLOUDY    35  31  85 CALM      30.34R
WASHINGTON     SUNNY     37  32  82 NE7       30.33S
WHITEVILLE     CLOUDY    40  33  76 NE5       30.28R

$$

AMZ130-135-150-152-154-156-158-170-250-252-270-ANZ085-086-088-633-658-670-211500-
MARINE OBSERVATIONS

STATION/POSITION TIME  TEMP    WIND        PRES    WAVE   SWELL
                       AIR SEA DIR/SP/G            HT/PER HT/PER
                 (UTC) (F)     (DEG/KT/KT) (MB)    (FT/S) (FT/S)
CHESAPEAKE LIGHT 1400   40      20/ 10/ 11 1027.6
64 E VA BEACH    1400   44 54   10/ 12/ 14 1025.8    2/ 3   2/10
DUCK             1400   42 45   20/ 14/ 16 1025.5
2 E DUCK         1400      46                N/A     2/ 4
10 NE DUCK       1400      51                N/A     3/ 4
OREGON INLET     1400   44 48   20/ 11/ 15 1026.2
13E OREGON INLT  1400      52                N/A     3/ 4
HATTERAS CG      1400   45 49   30/ 12/ 15 1026.1
DIAMOND BUOY     1400   52                 1025.0    4/ 4
17 S OCRACOKE    NOT AVBL
CAPE LOOKOUT     1400   44      20/ 13/ 17 1025.1
BEAUFORT LAB     1400   42 52   20/ 12/ 16 1024.4
30 SE NEW RIVER  1400   50 61   40/ 19/ 23 1024.5    5/ 6
5 SE WRIGHTSVLE  NOT AVBL
225 S CAPE HAT   1330   68 70   90/ 21/ 23 1020.6    6/ 6   2/10
41 SE CHARLESTON 1400   59 70   20/ 21/ 25 1021.4    7/ 6

$$



USA.gov is the U.S. government's official web portal to all federal, state and local government web resources and services.